Location: Buisson
(44.2787°N, 4.9969°E)
Time: 00:32:02
(UTC+00:00)

N. Korean satellite - Pass Details

Date: 03 October 2021
Orbit: 450 x 495 km, 97.3° (Epoch: 25 October)

Event Time Altitude Azimuth Distance (km) Brightness Sun altitude
Rises 04:28:28 0° 21° (NNE) 2,557 10.6 -13.6°
Reaches altitude 10° 04:30:40 10° 30° (NNE) 1,679 9.8 -13.3°
Maximum altitude 04:33:59 34° 97° (E) 824 8.4 -12.7°
Drops below altitude 10° 04:37:19 10° 164° (SSE) 1,682 9.4 -12.1°
Sets 04:39:31 0° 174° (S) 2,563 10.2 -11.7°
